UR5WGN-5 Lvivska UA current weather conditions

sailwx.info

Wind from 112

Air temperature 27.2° C
Dewpoint 13.9° C

Last reported at 2018-May-27 17:06 UTC.
Time now 2018-May-27 17:35 UTC

Location: N 49°30' E 023°12'.
View on Google Maps.

See reports from other nearby stations

  
Tides and Currents Weather Stations Pressure Air Temp Water Temp Dewpoint Dewpoint Depression Visibility Wind Speed Wind Dir Waves Ship Positions
date/time (UTC)wind fromknots sea level pressurealtimeterstation pressurevisibilityair tempwater tempwave heightnotes
2018-May-27 17:06 112 27.2
2018-May-27 17:01 067 4 gusting 6 27.2
2018-May-27 16:56 067 27.2
2018-May-27 16:51 135 4 gusting 5 27.8
2018-May-27 16:46 135 27.8
2018-May-27 16:41 112 1 gusting 5 27.8
2018-May-27 16:36 157 27.8
2018-May-27 16:31 112 27.8
2018-May-27 16:26 090 27.8
2018-May-27 16:21 112 4 gusting 4 28.3
2018-May-27 16:16 135 28.3
2018-May-27 16:11 090 5 gusting 5 28.3
2018-May-27 16:06 135 4 gusting 5 28.3
2018-May-27 16:01 045 3 gusting 4 28.3
2018-May-27 15:56 067 28.3
2018-May-27 15:51 090 3 gusting 6 28.3
2018-May-27 15:46 067 3 gusting 6 28.3
2018-May-27 15:41 090 2 gusting 6 28.3
2018-May-27 15:36 090 2 gusting 5 28.3
2018-May-27 15:31 067 28.3
2018-May-27 15:26 067 1 gusting 1 27.8
2018-May-27 15:21 090 27.8
2018-May-27 15:16 045 2 gusting 5 27.8
2018-May-27 15:11 090 0 gusting 7 27.8
2018-May-27 15:06 090 27.8
2018-May-27 15:01 112 4 gusting 6 27.8
2018-May-27 14:56 090 3 gusting 5 27.8
2018-May-27 14:51 112 1 gusting 5 27.8
2018-May-27 14:46 135 27.8
2018-May-27 14:41 135 27.8
2018-May-27 14:36 067 3 gusting 5 27.2
2018-May-27 14:31 157 4 gusting 6 27.2
2018-May-27 14:26 067 1 gusting 6 26.7
2018-May-27 14:21 112 1 gusting 5 26.7
2018-May-27 14:16 157 3 gusting 6 26.1
2018-May-27 14:11 067 2 gusting 6 26.1
2018-May-27 14:06 157 26.1
2018-May-27 14:01 067 26.1
2018-May-27 13:56 112 5 gusting 6 26.1
2018-May-27 13:51 112 2 gusting 5 26.1
2018-May-27 13:46 090 5 gusting 6 26.7
2018-May-27 13:41 112 26.7
2018-May-27 13:36 090 3 gusting 4 26.1
2018-May-27 13:30 112 3 gusting 8 26.1
2018-May-27 13:25 135 26.1
2018-May-27 13:20 090 2 gusting 5 26.1
2018-May-27 13:15 090 26.1
2018-May-27 13:10 112 4 gusting 8 26.1
2018-May-27 13:05 180 3 gusting 6 26.7
2018-May-27 13:00 135 5 gusting 5 26.7
2018-May-27 12:55 157 3 gusting 6 26.1
2018-May-27 12:50 157 26.1
2018-May-27 12:45 112 26.1
2018-May-27 12:40 045 26.1
2018-May-27 12:35 112 3 gusting 5 26.1
2018-May-27 12:30 112 26.1
2018-May-27 12:25 112 26.1
2018-May-27 12:20 135 0 gusting 7 26.1
2018-May-27 12:15 090 26.1
2018-May-27 12:10 135 25.6
2018-May-27 12:05 090 0 gusting 6 25.6
2018-May-27 12:00 135 1 gusting 6 25.6
2018-May-27 11:55 067 25.6
2018-May-27 11:50 045 6 gusting 6 25.6
2018-May-27 11:45 090 5 gusting 5 25.6
2018-May-27 11:40 090 25.6
2018-May-27 11:35 090 25.6
2018-May-27 11:30 112 3 gusting 6 25.6
2018-May-27 11:25 25.6
2018-May-27 11:20 112 3 gusting 7 25.6
2018-May-27 11:15 135 5 gusting 6 25.6
2018-May-27 11:10 135 4 gusting 5 25.0
2018-May-27 11:05 135 25.0
2018-May-27 11:00 112 5 gusting 7 25.0
2018-May-27 10:55 135 5 gusting 7 25.0
2018-May-27 10:50 157 4 gusting 6 25.0
2018-May-27 10:45 067 25.0
2018-May-27 10:40 112 0 gusting 6 24.4
2018-May-27 10:35 067 1 gusting 6 25.0
2018-May-27 10:30 112 5 gusting 6 24.4
2018-May-27 10:25 090 1 gusting 9 24.4
2018-May-27 10:20 112 5 gusting 9 24.4
2018-May-27 10:15 157 24.4
2018-May-27 10:10 157 24.4
2018-May-27 10:05 067 5 gusting 7 24.4
2018-May-27 10:00 067 23.9
2018-May-27 09:55 067 23.9
2018-May-27 09:50 067 23.9
2018-May-27 09:45 337 4 gusting 6 23.9
2018-May-27 09:40 045 0 gusting 7 23.9
2018-May-27 09:35 157 23.9
2018-May-27 09:30 157 23.9
2018-May-27 09:25 090 23.9
2018-May-27 09:20 112 23.9
2018-May-27 09:15 135 23.3
2018-May-27 09:10 045 6 gusting 6 23.9
2018-May-27 09:05 090 23.3
2018-May-27 09:00 045 23.3
2018-May-27 08:55 067 22.8
2018-May-27 08:50 067 23.3
2018-May-27 08:45 090 22.8
2018-May-27 08:40 157 1 gusting 6 22.8
2018-May-27 08:35 135 3 gusting 4 22.8
2018-May-27 08:30 090 22.8
2018-May-27 08:25 135 22.8
2018-May-27 08:20 067 22.2
2018-May-27 08:15 135 21.7
2018-May-27 08:10 112 4 gusting 5 21.7
2018-May-27 08:05 067 21.7
2018-May-27 08:00 112 3 gusting 6 21.7
2018-May-27 07:55 090 21.7
2018-May-27 07:50 022 21.1
2018-May-27 07:45 067 21.1
2018-May-27 07:40 067 21.1
2018-May-27 07:35 067 20.6
2018-May-27 07:30 045 20.6
2018-May-27 07:25 067 20.6
2018-May-27 07:20 090 20.6
2018-May-27 07:15 112 20.0
2018-May-27 07:10 112 20.0
2018-May-27 07:05 067 19.4
2018-May-27 07:00 090 19.4
2018-May-27 06:55 112 19.4
2018-May-27 06:50 067 18.9
2018-May-27 06:45 067 18.9
2018-May-27 06:40 090 0 gusting 1 18.9
2018-May-27 06:35 112 18.9
2018-May-27 06:30 090 18.9
2018-May-27 06:25 112 18.9
2018-May-27 06:20 112 18.3
2018-May-27 06:15 045 18.3
2018-May-27 06:10 112 18.3
2018-May-27 06:05 135 18.3
2018-May-27 06:00 112 18.3
2018-May-27 05:55 112 17.8
2018-May-27 05:50 112 17.8
2018-May-27 05:45 090 17.8
2018-May-27 05:40 112 17.2
2018-May-27 05:35 067 17.2
2018-May-27 05:30 112 17.2
2018-May-27 05:25 135 16.7
2018-May-27 05:20 090 16.7
2018-May-27 05:15 090 16.1
2018-May-27 05:10 135 16.1
2018-May-27 05:05 090 16.1
2018-May-27 05:00 135 15.6
2018-May-27 04:54 135 15.6
2018-May-27 04:49 112 15.0
2018-May-27 04:44 112 15.0
2018-May-27 04:39 112 14.4
2018-May-27 04:34 112 14.4
2018-May-27 04:29 112 13.9
2018-May-27 04:24 112 13.9
2018-May-27 04:19 112 13.9
2018-May-27 04:14 112 13.3
2018-May-27 04:09 112 13.3
2018-May-27 04:04 112 12.8
2018-May-27 03:59 112 12.8
2018-May-27 03:54 112 12.8
2018-May-27 03:49 112 12.8
2018-May-27 03:44 112 12.8
2018-May-27 03:39 112 12.2
2018-May-27 03:34 112 12.2
2018-May-27 03:29 112 12.2
2018-May-27 03:24 112 11.7
2018-May-27 03:19 112 11.7
2018-May-27 03:14 112 11.7
2018-May-27 03:09 112 11.7
2018-May-27 03:04 112 11.7
2018-May-27 02:59 112 11.7
2018-May-27 02:54 112 11.7
2018-May-27 02:49 112 11.7
2018-May-27 02:44 112 11.7
2018-May-27 02:39 112 11.7
2018-May-27 02:34 112 11.7
2018-May-27 02:29 112 11.7
2018-May-27 02:24 112 11.7
2018-May-27 02:19 112 11.7
2018-May-27 02:14 112 12.2
2018-May-27 02:09 112 12.2
2018-May-27 02:04 112 12.2
2018-May-27 01:59 112 12.2
2018-May-27 01:54 112 12.8
2018-May-27 01:49 112 12.8
2018-May-27 01:44 112 12.8
2018-May-27 01:39 112 12.8
2018-May-27 01:34 112 12.8
2018-May-27 01:29 112 12.8
2018-May-27 01:24 112 12.8
2018-May-27 01:19 112 12.8
2018-May-27 01:14 112 12.8
2018-May-27 01:09 112 13.3
2018-May-27 01:04 112 13.3
2018-May-27 00:59 112 13.3
2018-May-27 00:54 112 13.3
2018-May-27 00:49 112 13.9
2018-May-27 00:44 112 13.9
2018-May-27 00:39 112 13.9
2018-May-27 00:33 112 13.9
2018-May-27 00:28 135 14.4
2018-May-27 00:23 135 14.4
2018-May-27 00:18 135 14.4
2018-May-27 00:13 135 14.4
2018-May-27 00:08 135 14.4
2018-May-27 00:03 067 14.4
2018-May-26 23:58 067 14.4
2018-May-26 23:53 067 14.4
2018-May-26 23:48 067 14.4
2018-May-26 23:43 067 14.4
2018-May-26 23:38 067 14.4
2018-May-26 23:33 067 14.4
2018-May-26 23:28 067 15.0
2018-May-26 23:23 112 15.0
2018-May-26 23:18 135 15.0
2018-May-26 23:13 135 14.4
2018-May-26 23:08 067 14.4
2018-May-26 23:03 067 14.4
2018-May-26 22:58 090 14.4
2018-May-26 22:53 090 14.4
2018-May-26 22:48 090 14.4
2018-May-26 22:43 090 14.4
2018-May-26 22:38 090 14.4
2018-May-26 22:33 090 14.4
2018-May-26 22:28 090 15.0
2018-May-26 22:23 090 15.0
2018-May-26 22:18 090 15.0
2018-May-26 22:13 090 15.0
2018-May-26 22:08 112 15.6
2018-May-26 22:03 112 15.6
2018-May-26 21:58 112 15.6
2018-May-26 21:53 112 15.6
2018-May-26 21:48 112 16.1
2018-May-26 21:43 090 16.1
2018-May-26 21:38 090 16.1
2018-May-26 21:33 067 16.1
2018-May-26 21:28 067 16.7
2018-May-26 21:23 067 16.7
2018-May-26 21:18 067 16.7
2018-May-26 21:13 067 16.7
2018-May-26 21:08 090 16.7
2018-May-26 21:03 067 16.7
2018-May-26 20:58 067 17.2
2018-May-26 20:53 090 0 gusting 2 17.2
2018-May-26 20:48 067 17.2
2018-May-26 20:43 090 17.2
2018-May-26 17:13 135 22.2
2018-May-26 17:08 135 22.2
2018-May-26 17:03 112 22.8
2018-May-26 16:58 112 22.8
2018-May-26 16:53 112 23.3
2018-May-26 16:48 112 23.3
2018-May-26 16:43 112 23.3
2018-May-26 16:38 112 23.3
2018-May-26 16:33 112 23.3
2018-May-26 16:28 112 23.9
2018-May-26 16:23 112 23.9
2018-May-26 16:18 112 23.9
2018-May-26 16:13 112 24.4
2018-May-26 16:08 112 24.4
2018-May-26 16:03 112 24.4
2018-May-26 15:58 112 24.4
2018-May-26 15:53 112 25.0
2018-May-26 15:48 112 25.0
2018-May-26 15:43 112 25.0
2018-May-26 15:38 112 25.0
2018-May-26 15:33 135 25.6
2018-May-26 15:28 135 25.6
2018-May-26 15:23 135 25.6
2018-May-26 15:18 135 6 gusting 6 26.1
2018-May-26 15:13 135 26.1
2018-May-26 15:08 135 25.6
2018-May-26 15:03 135 25.6
2018-May-26 14:58 135 25.6
2018-May-26 14:53 135 0 gusting 6 25.6
2018-May-26 14:48 112 25.6
2018-May-26 14:43 135 25.6
2018-May-26 14:38 090 0 gusting 2 25.6
2018-May-26 14:33 135 25.0
2018-May-26 14:28 112 25.0
2018-May-26 14:23 135 24.4
2018-May-26 14:18 112 23.9
2018-May-26 14:13 112 23.9
2018-May-26 14:08 112 23.9
2018-May-26 14:03 112 23.9
2018-May-26 13:58 135 23.9
2018-May-26 13:53 157 23.9
2018-May-26 13:48 135 23.9
2018-May-26 13:43 135 23.9
2018-May-26 13:38 135 23.9
2018-May-26 13:33 135 23.9
2018-May-26 13:28 135 23.9
2018-May-26 13:23 135 23.9
2018-May-26 13:18 135 23.3
2018-May-26 13:13 135 23.3
2018-May-26 13:08 112 23.3
2018-May-26 13:03 112 23.3
2018-May-26 12:58 135 22.8
2018-May-26 12:53 112 22.8
2018-May-26 12:48 135 22.8
2018-May-26 12:38 112 22.8
2018-May-26 12:33 090 22.8
2018-May-26 12:28 135 22.8
2018-May-26 12:23 135 22.8
2018-May-26 12:18 112 22.8
2018-May-26 12:13 135 1 gusting 4 22.8
2018-May-26 12:08 135 22.8
2018-May-26 12:03 112 22.8
2018-May-26 11:58 157 22.8
2018-May-26 11:53 090 3 gusting 6 22.8
2018-May-26 11:48 135 2 gusting 6 23.3
2018-May-26 11:43 067 22.8
2018-May-26 11:38 067 5 gusting 6 23.3
2018-May-26 11:33 067 23.3
2018-May-26 11:28 112 23.3
2018-May-26 11:23 112 23.9
2018-May-26 11:18 135 6 gusting 7 23.9
2018-May-26 11:13 112 23.9
2018-May-26 11:08 112 4 gusting 7 23.9
2018-May-26 11:03 135 1 gusting 6 23.9
2018-May-26 10:58 090 24.4
2018-May-26 10:53 135 2 gusting 7 24.4
2018-May-26 10:48 157 0 gusting 8 24.4
2018-May-26 10:43 090 5 gusting 6 24.4
2018-May-26 10:38 067 3 gusting 9 25.0
2018-May-26 10:33 157 6 gusting 6 25.6
2018-May-26 10:28 135 6 gusting 9 25.6
2018-May-26 10:23 112 3 gusting 9 25.6
2018-May-26 10:18 090 25.6
2018-May-26 10:13 135 25.6
2018-May-26 10:08 135 7 gusting 8 25.0
2018-May-26 10:03 135 5 gusting 9 25.0
2018-May-26 09:58 135 25.0
2018-May-26 09:53 090 25.0
2018-May-26 09:48 090 6 gusting 7 25.0
2018-May-26 09:43 135 5 gusting 6 25.0
2018-May-26 09:38 135 25.0
2018-May-26 09:33 135 6 gusting 6 24.4
2018-May-26 09:28 045 5 gusting 6 24.4
2018-May-26 09:23 067 24.4
2018-May-26 09:18 045 2 gusting 6 24.4
2018-May-26 09:13 090 24.4
2018-May-26 09:08 112 24.4
2018-May-26 09:03 112 23.9
2018-May-26 08:58 112 23.9
2018-May-26 08:53 112 23.9
2018-May-26 08:48 067 2 gusting 5 23.9
2018-May-26 08:43 067 1 gusting 6 23.9
2018-May-26 08:38 112 2 gusting 6 23.9
2018-May-26 08:33 112 5 gusting 6 23.9
2018-May-26 08:28 157 5 gusting 8 23.9
2018-May-26 08:23 135 23.9
2018-May-26 08:18 067 23.9
2018-May-26 08:13 135 23.3
2018-May-26 08:08 135 1 gusting 6 23.3
2018-May-26 08:03 112 23.3
2018-May-26 07:58 067 2 gusting 5 23.3
2018-May-26 07:53 067 1 gusting 1 22.8
2018-May-26 07:48 112 22.8
2018-May-26 07:43 135 3 gusting 3 22.8
2018-May-26 07:38 135 22.8
2018-May-26 07:33 135 22.2
2018-May-26 07:28 135 21.7
2018-May-26 07:23 135 21.7
2018-May-26 07:18 135 21.1
2018-May-26 07:13 112 21.1
2018-May-26 07:08 157 20.6
2018-May-26 07:03 090 20.6
2018-May-26 06:58 112 20.0
2018-May-26 06:53 112 20.0
2018-May-26 06:48 135 19.4
2018-May-26 06:43 112 19.4
2018-May-26 06:38 090 19.4
2018-May-26 06:33 112 18.9
2018-May-26 06:28 112 18.9
2018-May-26 06:23 157 18.9
2018-May-26 06:18 112 18.9
2018-May-26 06:13 112 18.3
2018-May-26 06:08 135 17.8
2018-May-26 06:03 090 17.8
2018-May-26 05:58 112 17.8
2018-May-26 05:53 112 17.2
2018-May-26 05:48 112 17.2
2018-May-26 05:43 112 16.7
2018-May-26 05:38 112 16.7
2018-May-26 05:33 157 16.1
2018-May-26 05:28 157 16.1
2018-May-26 05:23 157 16.1
2018-May-26 05:18 157 16.1
2018-May-26 05:13 157 15.6
2018-May-26 05:08 157 15.6
2018-May-26 05:03 157 15.6
2018-May-26 04:58 157 15.0
2018-May-26 04:53 157 15.0
2018-May-26 04:48 157 14.4
2018-May-26 04:43 157 14.4
2018-May-26 04:38 157 14.4
2018-May-26 04:33 157 13.9
2018-May-26 04:27 157 13.9
2018-May-26 04:22 157 13.3
2018-May-26 04:17 157 13.3
2018-May-26 04:12 157 13.3
2018-May-26 04:07 157 12.8
2018-May-26 04:02 157 12.8
2018-May-26 03:57 157 12.8
2018-May-26 03:52 157 12.8
2018-May-26 03:47 157 12.8
2018-May-26 03:42 157 12.2
2018-May-26 03:37 157 12.2
2018-May-26 03:32 157 12.2
2018-May-26 03:27 157 12.2
2018-May-26 03:22 157 12.2
2018-May-26 03:17 157 12.2
2018-May-26 03:12 157 12.2
2018-May-26 03:07 157 12.2
2018-May-26 03:02 180 12.2
2018-May-26 02:57 180 12.2
2018-May-26 02:52 180 12.2
2018-May-26 02:47 180 12.2
2018-May-26 02:42 180 12.2
2018-May-26 02:37 112 12.2
2018-May-26 02:32 112 12.2
2018-May-26 02:27 112 12.2
2018-May-26 02:22 112 12.2
2018-May-26 02:17 112 12.2
2018-May-26 02:12 112 12.2
2018-May-26 02:07 112 11.7
2018-May-26 02:02 112 12.2
2018-May-26 01:57 112 12.2
2018-May-26 01:52 112 12.2
2018-May-26 01:47 225 12.2
2018-May-26 01:42 225 12.2
2018-May-26 01:37 225 12.8
2018-May-26 01:32 225 12.8
2018-May-26 01:27 225 12.8
2018-May-26 01:22 225 12.8
2018-May-26 01:17 225 12.8
2018-May-26 01:12 225 12.8
2018-May-26 01:07 225 12.8
2018-May-26 01:02 225 12.8
2018-May-26 00:57 225 12.8
2018-May-26 00:52 225 12.8
2018-May-26 00:47 225 12.8
2018-May-26 00:42 225 12.8
2018-May-26 00:37 225 12.8
2018-May-26 00:32 225 12.8
2018-May-26 00:27 225 12.8
2018-May-26 00:22 225 12.8
2018-May-26 00:17 225 12.8
2018-May-26 00:12 225 12.8
2018-May-26 00:07 225 12.8
2018-May-26 00:02 225 12.8
2018-May-25 23:57 225 12.8
2018-May-25 23:52 225 12.8
2018-May-25 23:47 225 12.8
2018-May-25 23:42 225 12.8
2018-May-25 23:37 225 12.8
2018-May-25 23:32 225 12.8
2018-May-25 23:27 225 12.8
2018-May-25 23:22 225 12.8
2018-May-25 23:17 225 12.8
2018-May-25 23:12 225 12.8
2018-May-25 23:07 225 13.3
2018-May-25 23:02 225 13.3
2018-May-25 22:57 225 13.3
2018-May-25 22:52 225 13.3
2018-May-25 22:47 225 13.3
2018-May-25 22:42 202 13.3
2018-May-25 22:37 067 13.9
2018-May-25 22:32 067 13.9
2018-May-25 22:27 067 13.9
2018-May-25 22:22 067 13.9
2018-May-25 22:17 067 13.9
2018-May-25 22:12 067 13.9
2018-May-25 22:07 067 13.9
2018-May-25 22:02 067 14.4
2018-May-25 21:57 067 14.4
2018-May-25 21:52 067 14.4
2018-May-25 21:47 067 14.4
2018-May-25 21:42 067 14.4
2018-May-25 21:37 067 14.4
2018-May-25 21:32 067 14.4
2018-May-25 21:27 067 14.4
2018-May-25 21:22 067 14.4
2018-May-25 21:17 067 14.4
2018-May-25 21:12 067 14.4
2018-May-25 21:07 067 15.0
2018-May-25 21:02 067 15.0
2018-May-25 20:57 067 15.0
2018-May-25 20:52 067 15.0
2018-May-25 20:47 067 15.6
2018-May-25 20:42 067 15.6
2018-May-25 20:37 067 15.6
2018-May-25 20:32 067 15.6
2018-May-25 20:27 067 15.6
2018-May-25 20:22 067 15.6
2018-May-25 20:17 067 15.6
2018-May-25 20:12 067 15.6
2018-May-25 20:07 067 15.6
2018-May-25 20:02 067 15.6
2018-May-25 19:57 067 15.6
2018-May-25 19:52 067 15.6
2018-May-25 19:47 090 15.6
2018-May-25 19:42 135 16.1
2018-May-25 19:37 135 16.1
2018-May-25 19:32 135 16.1
2018-May-25 19:27 135 16.7
2018-May-25 19:22 135 16.7
2018-May-25 19:17 135 16.7
2018-May-25 19:12 135 16.7
2018-May-25 19:07 135 17.2
2018-May-25 19:02 135 17.2
2018-May-25 18:57 135 17.2
2018-May-25 18:52 135 17.2
2018-May-25 18:47 135 17.2
2018-May-25 18:42 135 17.2
2018-May-25 18:37 135 17.8
2018-May-25 18:32 135 17.8
2018-May-25 18:27 135 17.8
2018-May-25 18:22 135 17.8
2018-May-25 18:17 135 17.8
2018-May-25 18:12 135 17.8
2018-May-25 18:07 135 18.3
2018-May-25 18:02 135 18.3
2018-May-25 17:57 135 18.9
2018-May-25 17:52 135 18.9
2018-May-25 17:47 112 18.9
2018-May-25 17:42 112 18.9
2018-May-25 17:37 112 19.4
2018-May-25 17:32 112 19.4
2018-May-25 17:27 112 19.4
2018-May-25 17:22 135 19.4
2018-May-25 17:17 135 20.0
2018-May-25 17:12 135 20.0
2018-May-25 17:02 135 20.6